Weather observations for the past three days for
Canefield Airport
Imperial (Metric)
Date Time (ast) Wind (mph) Vis. (mi.) Weather Sky Cond. Temperature (ºF) Relative Humidity Wind Chill (°F) Heat Index (°F) Pressure Precipitation (in)
Air Dwpt 6 hour altimeter (in) sea level (mb) 1 hr 3 hr 6 hr
Max. Min.
04 16:00 Vrbl 1 0.00 A Few Clouds FEW019 93.2 82.4 71% 117 0 0.0
04 15:00 Vrbl 2 0.00 A Few Clouds FEW019 89.6 82.4 79% 111 0 0.0
04 14:00 NW 5 0.00 A Few Clouds FEW018 91.4 82.4 75% 114 0 0.0
04 13:00 Vrbl 1 0.00 Partly Cloudy SCT019 93.2 82.4 71% 117 0 0.0
04 12:00 Vrbl 1 0.00 Partly Cloudy SCT019 93.2 82.4 71% 117 0 0.0
04 11:00 Vrbl 2 0.00 Mostly Cloudy BKN019 93.2 82.4 71% 117 0 0.0
04 10:00 Vrbl 2 0.00 Mostly Cloudy BKN017 87.8 80.6 79% 105 0 0.0
04 09:00 NW 3 0.00 Partly Cloudy SCT018 86 80.6 84% 102 0 0.0
04 08:00 Vrbl 1 0.00 Partly Cloudy FEW016 SCT018 86 80.6 84% 102 0 0.0
03 16:00 NW 2 0.00 A Few Clouds FEW022 89.6 80.6 75% 108 0 0.0
03 15:00 NW 3 0.00 A Few Clouds FEW024 91.4 80.6 71% 111 0 0.0
03 14:00 NW 2 0.00 A Few Clouds FEW024 91.4 80.6 71% 111 0 0.0
03 13:00 NW 2 0.00 A Few Clouds FEW024 91.4 80.6 71% 111 0 0.0
03 12:00 W 1 0.00 A Few Clouds FEW024 93.2 80.6 67% 113 0 0.0
03 11:00 NW 2 0.00 A Few Clouds FEW022 89.6 78.8 71% 105 0 0.0
03 10:00 NW 3 0.00 A Few Clouds FEW020 86 78.8 79% 99 0 0.0
03 09:00 NW 3 0.00 A Few Clouds FEW022 84.2 77 79% 94 0 0.0
03 08:00 S 2 0.00 A Few Clouds FEW022 86 78.8 79% 99 0 0.0
02 16:00 NW 2 0.00 Mostly Cloudy BKN018TCU 86 78.8 79% 99 0 0.0
02 15:00 NW 3 0.00 Mostly Cloudy BKN018 87.8 80.6 79% 105 0 0.0
02 14:00 NW 5 0.00 Partly Cloudy SCT018 87.8 78.8 75% 102 0 0.0
02 13:00 NW 2 0.00 Mostly Cloudy BKN018 86 78.8 79% 99 0 0.0
02 12:00 NW 2 0.00 Partly Cloudy SCT018 91.4 80.6 71% 111 0 0.0
02 11:00 W 2 0.00 A Few Clouds FEW018 89.6 78.8 71% 105 0 0.0
02 10:00 NW 2 0.00 Mostly Cloudy BKN020 89.6 77 67% 103 0 0.0
02 09:00 N 9 0.00 A Few Clouds FEW022 84.2 77 79% 94 0 0.0
02 08:00 SE 2 0.00 A Few Clouds FEW022 84.2 77 79% 94 0 0.0
Date Time (ast) Wind (mph) Vis. (mi.) Weather Sky Cond. Air Dwpt Max. Min. Relative Humidity Wind Chill (°F) Heat Index (°F) altimeter (in) sea level (mb) 1 hr 3 hr 6 hr
6 hour
Temperature (ºF) Pressure Precipitation (in)